EW4462 Weather Reports


Display with metric or nautical units.
time (UTC)temp
F
wind
direction
speed
MPH
gust
MPH
rain 1hr
in
rain 24hr
in
rain mn
in
humidity
%
barometer
mb
20260901074922 67 144 0.0 0.0 0.00 0.00 0.00 89 1014.8
20260901072811 67 144 0.0 0.0 0.00 0.00 0.00 89 1014.9
20260901071821 67 144 0.0 0.0 0.00 0.00 0.00 89 1014.9
20260901070839 67 144 0.0 0.0 0.00 0.00 0.00 89 1014.8
20260901065832 67 144 0.0 0.0 0.00 0.00 0.00 89 1014.9
20260901064814 67 144 0.0 0.0 0.00 0.00 0.00 88 1014.8
20260901063744 68 144 0.0 0.0 0.00 0.00 0.00 88 1014.8
20260901060423 68 144 0.0 0.0 0.00 0.00 0.00 88 1014.8
20260901055410 68 144 0.0 0.0 0.00 0.00 0.00 87 1014.8
20260901054403 68 144 0.0 0.0 0.00 0.00 0.00 87 1014.7
20260901053404 68 144 0.0 0.0 0.00 0.00 0.00 87 1014.7
20260901052338 68 144 0.0 0.0 0.00 0.00 0.00 86 1014.7
20260901050148 69 144 0.0 0.0 0.00 0.00 0.00 85 1014.6
20260901045139 69 144 0.0 0.0 0.00 0.00 0.00 84 1014.6
20260901044120 69 144 0.0 0.0 0.00 0.00 0.00 84 1014.5
20260901043058 70 144 0.0 0.0 0.00 0.00 0.00 84 1014.4
20260901042026 70 144 0.0 0.0 0.00 0.00 0.00 84 1014.5
20260901041009 70 144 0.0 0.0 0.00 0.00 0.00 84 1014.5
20260901040026 70 144 0.0 0.0 0.00 0.00 0.00 83 1014.5
20260901033953 71 144 0.0 0.0 0.00 0.00 0.00 82 1014.2
20260901032950 71 144 0.0 0.0 0.00 0.00 0.00 82 1014.1
20260901032013 71 144 0.0 0.0 0.00 0.00 0.00 82 1013.8
20260901024730 72 144 0.0 0.0 0.00 0.00 0.00 80 1013.3
20260901023754 73 144 0.0 0.0 0.00 0.00 0.00 80 1013.2
20260901022806 73 144 0.0 0.0 0.00 0.00 0.00 80 1013.2
20260901021824 73 144 0.0 0.0 0.00 0.00 0.00 79 1013.2
20260901020829 74 148 0.0 0.0 0.00 0.00 0.00 78 1013.1
20260901015841 74 150 0.0 0.0 0.00 0.00 0.00 77 1012.9
20260901014835 75 153 0.0 0.0 0.00 0.00 0.00 75 1012.8
20260901013827 75 111 0.0 0.0 0.00 0.00 0.00 74 1012.8
20260901012827 76 111 0.0 0.0 0.00 0.00 0.00 72 1013.0
20260901011840 76 115 0.0 0.0 0.00 0.00 0.00 71 1012.9
20260901010851 77 121 0.0 0.0 0.00 0.00 0.00 70 1013.1
20260901005825 77 112 0.0 0.0 0.00 0.00 0.00 69 1013.2
20260901003723 79 159 0.0 0.0 0.00 0.00 0.00 70 1013.3
20260901002746 80 159 0.0 0.0 0.00 0.00 0.00 68 1013.3
20260901001740 81 109 0.0 0.0 0.00 0.00 0.00 67 1013.3
20260901000714 81 127 0.0 0.0 0.00 0.00 0.00 67 1013.3
20260831235643 81 117 0.0 0.0 0.00 0.00 0.00 68 1013.3
20260831234647 81 105 0.0 0.0 0.00 0.00 0.00 69 1013.5
20260831233711 81 105 0.0 0.0 0.00 0.00 0.00 68 1013.5
20260831231529 82 103 0.0 0.0 0.00 0.00 0.00 67 1013.4
20260831230535 82 105 0.0 0.0 0.00 0.00 0.00 66 1013.4
20260831225533 83 88 0.0 5.0 0.00 0.00 0.00 65 1013.4
20260831224502 83 92 0.0 0.0 0.00 0.00 0.00 66 1013.6
20260831223516 82 78 0.0 0.0 0.00 0.00 0.00 66 1013.6
20260831221356 83 83 0.0 3.0 0.00 0.00 0.00 67 1013.8
20260831220348 83 105 0.0 0.0 0.00 0.00 0.00 67 1013.9
20260831215338 82 101 0.0 0.0 0.00 0.00 0.00 66 1013.8
20260831214325 82 84 0.0 0.0 0.00 0.00 0.00 67 1013.7
20260831213325 82 113 0.0 0.0 0.00 0.00 0.00 67 1013.8
20260831211231 83 103 0.0 0.0 0.00 0.00 0.00 65 1014.1
20260831210207 82 82 0.0 0.0 0.00 0.00 0.00 66 1014.2
20260831205208 82 79 0.0 0.0 0.00 0.00 0.00 67 1014.3
20260831204203 81 107 0.0 0.0 0.00 0.00 0.00 67 1014.3
20260831202033 81 120 0.0 0.0 0.00 0.00 0.00 68 1014.4
20260831201026 80 124 0.0 0.0 0.00 0.00 0.00 69 1014.4
20260831200000 81 113 0.0 0.0 0.00 0.00 0.00 68 1014.5
20260831195003 81 140 0.0 0.0 0.00 0.00 0.00 69 1014.4
20260831192814 80 107 0.0 0.0 0.00 0.00 0.00 70 1014.6
20260831191743 81 115 0.0 6.0 0.00 0.00 0.00 69 1014.7
20260831190733 80 121 0.0 1.0 0.00 0.00 0.00 69 1014.6
20260831185716 81 128 0.0 0.0 0.00 0.00 0.00 69 1014.6
20260831184736 80 90 0.0 0.0 0.00 0.00 0.00 71 1014.6
20260831183707 80 129 0.0 0.0 0.00 0.00 0.00 71 1014.6
20260831182636 80 114 0.0 0.0 0.00 0.00 0.00 71 1014.7
20260831181637 80 107 0.0 1.0 0.00 0.00 0.00 71 1014.5
20260831180657 79 94 0.0 0.0 0.00 0.00 0.00 72 1014.5
20260831175624 79 109 0.0 0.0 0.00 0.00 0.00 71 1014.5
20260831174611 79 116 0.0 0.0 0.00 0.00 0.00 72 1014.4
20260831173553 79 114 0.0 0.0 0.00 0.00 0.00 71 1014.3
20260831172551 80 117 0.0 0.0 0.00 0.00 0.00 70 1014.2
20260831171544 80 93 0.0 0.0 0.00 0.00 0.00 69 1014.2
20260831170537 80 50 0.0 0.0 0.00 0.00 0.00 69 1014.1
20260831165508 80 16 0.0 0.0 0.00 0.00 0.00 70 1014.1
20260831164442 79 96 0.0 0.0 0.00 0.00 0.00 71 1014.0
20260831162243 78 87 0.0 0.0 0.00 0.00 0.00 73 1013.9
20260831161308 77 122 0.0 0.0 0.00 0.00 0.00 73 1013.9
20260831160236 77 101 0.0 0.0 0.00 0.00 0.00 75 1014.0
20260831155231 75 102 0.0 0.0 0.00 0.00 0.00 77 1014.0
20260831154247 74 102 0.0 0.0 0.00 0.00 0.00 79 1014.0
20260831152107 73 88 0.0 0.0 0.00 0.00 0.00 81 1014.0
20260831151057 72 89 0.0 0.0 0.00 0.00 0.00 82 1014.0
20260831150123 72 89 0.0 0.0 0.00 0.00 0.00 83 1013.9
20260831145050 71 89 0.0 0.0 0.00 0.00 0.00 84 1013.8
20260831144018 71 89 0.0 0.0 0.00 0.00 0.00 85 1013.9
20260831143024 70 89 0.0 0.0 0.00 0.00 0.00 86 1013.8
20260831140950 70 89 0.0 0.0 0.00 0.00 0.00 86 1013.6
20260831134832 70 89 0.0 0.0 0.00 0.00 0.00 86 1013.2
20260831132705 70 89 0.0 0.0 0.00 0.00 0.00 85 1013.0
20260831131636 70 89 0.0 0.0 0.00 0.00 0.00 85 1012.9
20260831130650 71 90 0.0 0.0 0.00 0.00 0.00 85 1012.8
20260831125632 71 89 0.0 0.0 0.00 0.00 0.00 85 1012.8
20260831124638 71 89 0.0 0.0 0.00 0.00 0.00 85 1012.8
20260831122554 71 89 0.0 0.0 0.00 0.00 0.00 86 1012.8
20260831121550 71 89 0.0 0.0 0.00 0.00 0.00 86 1012.7
20260831120533 71 89 0.0 0.0 0.00 0.00 0.00 86 1012.7
20260831115536 71 90 0.0 0.0 0.00 0.00 0.00 86 1012.7
20260831114556 71 89 0.0 0.0 0.00 0.00 0.00 86 1012.7
20260831112433 71 90 0.0 0.0 0.00 0.00 0.00 86 1012.8
20260831111424 71 90 0.0 0.0 0.00 0.00 0.00 87 1012.8
20260831110443 71 90 0.0 0.0 0.00 0.00 0.00 87 1012.9
20260831105424 71 90 0.0 0.0 0.00 0.00 0.00 87 1012.8
20260831104422 70 90 0.0 0.0 0.00 0.00 0.00 88 1012.9
20260831102232 70 90 0.0 0.0 0.00 0.00 0.00 89 1012.9
20260831101253 70 90 0.0 0.0 0.00 0.00 0.00 89 1012.9
20260831100237 70 90 0.0 0.0 0.00 0.00 0.00 89 1013.0
20260831095254 70 90 0.0 0.0 0.00 0.00 0.00 89 1012.9
20260831094232 70 90 0.0 0.0 0.00 0.00 0.00 89 1013.0
20260831092155 70 90 0.0 0.0 0.00 0.00 0.00 89 1012.9
20260831091207 70 90 0.0 0.0 0.00 0.00 0.00 89 1012.9
20260831085124 70 90 0.0 0.0 0.00 0.00 0.00 89 1013.0
20260831084139 70 90 0.0 0.0 0.00 0.00 0.00 89 1013.0
20260831083139 70 90 0.0 0.0 0.00 0.00 0.00 89 1013.0
20260831081017 70 90 0.0 0.0 0.00 0.00 0.00 89 1013.1
20260831080036 70 90 0.0 0.0 0.00 0.00 0.00 89 1013.2